Radiation Dose at Monitoring Post of Fukushima Daini Nuclear Power Station
Date,Time,MP-1(microSv/h),MP-2(microSv/h),MP-3(microSv/h),MP-4(microSv/h),MP-5(microSv/h),MP-6(microSv/h),MP-7(microSv/h),Wind Direction,Wind Velocity(m/s),Rain
2021/01/29,00:00,0.181,0.162,0.256,0.241,0.240,0.143,0.087,northwest,7.6,Yes
2021/01/29,00:10,0.180,0.161,0.256,0.241,0.240,0.143,0.087,northwest,6.8,Yes
2021/01/29,00:20,0.180,0.162,0.255,0.241,0.238,0.142,0.087,northwest,7.3,Yes
2021/01/29,00:30,0.179,0.162,0.256,0.242,0.239,0.142,0.087,northwest,7.6,Yes
2021/01/29,00:40,0.182,0.161,0.256,0.242,0.239,0.143,0.089,northwest,7.0,Yes
2021/01/29,00:50,0.181,0.162,0.255,0.243,0.239,0.143,0.087,northwest,6.7,Yes
2021/01/29,01:00,0.180,0.161,0.254,0.242,0.239,0.143,0.089,northwest,7.0,No
2021/01/29,01:10,0.180,0.161,0.254,0.241,0.239,0.142,0.088,northwest,7.0,No
2021/01/29,01:20,0.180,0.161,0.255,0.240,0.239,0.142,0.085,northwest,6.3,Yes
2021/01/29,01:30,0.180,0.161,0.254,0.239,0.239,0.141,0.087,northwest,6.1,Yes
2021/01/29,01:40,0.179,0.160,0.253,0.239,0.238,0.141,0.086,northwest,5.3,No
2021/01/29,01:50,0.179,0.160,0.253,0.240,0.238,0.141,0.086,northwest,4.0,No
2021/01/29,02:00,0.178,0.160,0.254,0.239,0.237,0.141,0.086,north-northwest,2.9,Yes
2021/01/29,02:10,0.179,0.159,0.253,0.238,0.237,0.141,0.085,north-northwest,3.1,Yes
2021/01/29,02:20,0.178,0.159,0.253,0.239,0.237,0.140,0.085,north-northwest,3.6,No
2021/01/29,02:30,0.178,0.160,0.252,0.240,0.237,0.141,0.085,north-northwest,2.4,No
2021/01/29,02:40,0.177,0.159,0.253,0.239,0.238,0.141,0.084,north,2.6,No
2021/01/29,02:50,0.177,0.159,0.253,0.240,0.237,0.140,0.085,north,2.2,No
2021/01/29,03:00,0.178,0.159,0.252,0.238,0.238,0.140,0.085,north,2.1,No
2021/01/29,03:10,0.177,0.160,0.252,0.239,0.237,0.139,0.085,north,1.6,No
2021/01/29,03:20,0.177,0.160,0.252,0.240,0.237,0.141,0.085,northeast,0.9,No
2021/01/29,03:30,0.178,0.159,0.253,0.238,0.238,0.139,0.085,northeast,0.9,No
2021/01/29,03:40,0.176,0.160,0.253,0.238,0.237,0.140,0.085,east,1.4,No
2021/01/29,03:50,0.178,0.159,0.252,0.239,0.237,0.139,0.085,east,0.8,No
2021/01/29,04:00,0.177,0.160,0.251,0.239,0.238,0.140,0.085,east,0.9,No
2021/01/29,04:10,0.177,0.159,0.251,0.240,0.237,0.141,0.085,north-northwest,0.6,No
2021/01/29,04:20,0.177,0.159,0.253,0.239,0.237,0.141,0.085,northwest,0.8,No
2021/01/29,04:30,0.177,0.160,0.252,0.239,0.237,0.140,0.084,northwest,3.1,No
2021/01/29,04:40,0.177,0.160,0.252,0.239,0.238,0.141,0.085,northwest,4.3,Yes
2021/01/29,04:50,0.179,0.159,0.253,0.240,0.239,0.141,0.086,west-northwest,2.8,Yes
2021/01/29,05:00,0.177,0.160,0.253,0.240,0.236,0.141,0.086,west-northwest,4.4,Yes
2021/01/29,05:10,0.177,0.160,0.253,0.239,0.238,0.141,0.085,west,4.3,No
2021/01/29,05:20,0.177,0.159,0.253,0.240,0.237,0.142,0.085,west-northwest,3.0,No
2021/01/29,05:30,0.177,0.158,0.252,0.239,0.238,0.141,0.086,northwest,3.3,No
2021/01/29,05:40,0.177,0.160,0.251,0.241,0.237,0.140,0.085,west-northwest,6.6,No
2021/01/29,05:50,0.177,0.160,0.253,0.240,0.237,0.141,0.084,west-northwest,11.5,No
2021/01/29,06:00,0.177,0.160,0.253,0.239,0.237,0.141,0.085,west,14.6,No
2021/01/29,06:10,0.177,0.159,0.253,0.241,0.237,0.140,0.086,west,15.6,No
2021/01/29,06:20,0.177,0.159,0.252,0.239,0.237,0.140,0.085,west,17.3,No
2021/01/29,06:30,0.177,0.159,0.252,0.239,0.237,0.139,0.085,west-northwest,13.4,No
2021/01/29,06:40,0.178,0.160,0.252,0.240,0.238,0.141,0.085,west-northwest,10.1,No
2021/01/29,06:50,0.178,0.159,0.253,0.239,0.237,0.140,0.085,west-northwest,12.0,No
2021/01/29,07:00,0.178,0.159,0.253,0.239,0.237,0.141,0.085,west-northwest,12.0,No
2021/01/29,07:10,0.177,0.160,0.252,0.239,0.237,0.140,0.084,west-northwest,11.1,No
2021/01/29,07:20,0.178,0.159,0.254,0.240,0.238,0.141,0.085,west-northwest,14.6,No
2021/01/29,07:30,0.178,0.160,0.253,0.239,0.239,0.140,0.086,west,13.7,No
2021/01/29,07:40,0.178,0.159,0.254,0.238,0.237,0.140,0.084,west,19.2,No
2021/01/29,07:50,0.178,0.159,0.253,0.240,0.237,0.141,0.085,-,CALM,No
2021/01/29,08:00,0.177,0.159,0.254,0.238,0.237,0.140,0.085,west,19.4,No
2021/01/29,08:10,0.178,0.158,0.255,0.240,0.239,0.141,0.084,west-northwest,22.3,No
2021/01/29,08:20,0.179,0.159,0.253,0.239,0.237,0.140,0.084,west-northwest,18.4,No
2021/01/29,08:30,0.178,0.160,0.256,0.240,0.238,0.141,0.085,west-northwest,22.2,No
2021/01/29,08:40,0.179,0.159,0.255,0.240,0.239,0.141,0.085,west-northwest,16.2,No
2021/01/29,08:50,0.178,0.159,0.255,0.239,0.237,0.141,0.085,west-northwest,17.8,No
2021/01/29,09:00,0.178,0.159,0.254,0.239,0.238,0.141,0.085,west,17.1,No
2021/01/29,09:10,0.177,0.160,0.255,0.239,0.238,0.140,0.084,-,CALM,No
2021/01/29,09:20,0.178,0.159,0.254,0.241,0.238,0.141,0.085,west-northwest,18.9,No
2021/01/29,09:30,0.178,0.159,0.253,0.240,0.238,0.142,0.085,west-northwest,12.9,No
2021/01/29,09:40,0.179,0.161,0.254,0.241,0.239,0.140,0.084,west-northwest,10.9,No
2021/01/29,09:50,0.179,0.161,0.257,0.242,0.239,0.142,0.085,northwest,8.4,No
2021/01/29,10:00,0.179,0.160,0.256,0.241,0.239,0.141,0.085,north,2.8,No
2021/01/29,10:10,0.179,0.159,0.256,0.241,0.238,0.140,0.085,north-northwest,3.6,No
2021/01/29,10:20,0.180,0.160,0.255,0.241,0.238,0.141,0.084,northwest,6.0,No
2021/01/29,10:30,0.179,0.161,0.256,0.241,0.236,0.140,0.084,west-northwest,7.7,No
2021/01/29,10:40,0.178,0.159,0.256,0.240,0.233,0.141,0.084,west-northwest,4.8,No
2021/01/29,10:50,0.180,0.159,0.254,0.240,0.234,0.141,0.084,west-northwest,5.7,No
2021/01/29,11:00,0.178,0.160,0.254,0.240,0.238,0.141,0.085,west,10.3,No
2021/01/29,11:10,0.179,0.159,0.255,0.240,0.238,0.140,0.085,west-northwest,10.4,No
2021/01/29,11:20,0.178,0.159,0.254,0.240,0.236,0.141,0.085,west,9.3,No
2021/01/29,11:30,0.177,0.159,0.252,0.240,0.238,0.141,0.085,west,10.3,No
2021/01/29,11:40,0.178,0.158,0.253,0.239,0.236,0.142,0.086,west-northwest,10.3,No
2021/01/29,11:50,0.177,0.160,0.254,0.240,0.236,0.142,0.085,west-northwest,7.9,No
2021/01/29,12:00,0.177,0.160,0.255,0.241,0.238,0.141,0.086,west-northwest,6.5,No
2021/01/29,12:10,0.178,0.159,0.255,0.240,0.235,0.141,0.085,west-northwest,7.7,No
2021/01/29,12:20,0.177,0.160,0.256,0.240,0.239,0.142,0.085,west-northwest,6.6,No
2021/01/29,12:30,0.178,0.160,0.255,0.241,0.237,0.142,0.085,west,10.4,No
2021/01/29,12:40,0.180,0.160,0.254,0.241,0.237,0.142,0.086,west-northwest,11.5,No
2021/01/29,12:50,0.178,0.160,0.254,0.240,0.238,0.141,0.085,west-northwest,10.6,No
2021/01/29,13:00,0.179,0.160,0.254,0.241,0.238,0.141,0.085,west-northwest,9.2,No
2021/01/29,13:10,0.179,0.159,0.255,0.241,0.238,0.142,0.085,west,7.6,No
2021/01/29,13:20,0.178,0.160,0.254,0.241,0.238,0.142,0.085,northwest,5.2,No
2021/01/29,13:30,0.178,0.159,0.255,0.240,0.238,0.142,0.086,west,7.4,No
2021/01/29,13:40,0.179,0.159,0.256,0.241,0.238,0.141,0.085,west,8.1,No
2021/01/29,13:50,0.178,0.159,0.255,0.240,0.238,0.142,0.085,west,12.2,No
2021/01/29,14:00,0.178,0.161,0.256,0.240,0.237,0.142,0.085,west-northwest,7.6,No
2021/01/29,14:10,0.179,0.160,0.255,0.239,0.238,0.141,0.085,west-northwest,9.5,No
2021/01/29,14:20,0.179,0.159,0.254,0.240,0.237,0.141,0.085,west,10.9,No
2021/01/29,14:30,0.179,0.160,0.255,0.241,0.236,0.141,0.085,west,11.5,No
2021/01/29,14:40,0.178,0.160,0.256,0.242,0.240,0.142,0.085,west,11.4,No
2021/01/29,14:50,0.179,0.159,0.255,0.242,0.238,0.141,0.086,west,9.3,No
2021/01/29,15:00,0.179,0.159,0.257,0.241,0.238,0.141,0.086,west-northwest,8.8,No
2021/01/29,15:10,0.179,0.161,0.255,0.242,0.240,0.142,0.086,west,7.8,No
2021/01/29,15:20,0.179,0.161,0.254,0.243,0.239,0.141,0.086,west,9.8,No
2021/01/29,15:30,0.179,0.160,0.256,0.242,0.239,0.141,0.085,west,10.0,No
2021/01/29,15:40,0.178,0.160,0.255,0.241,0.240,0.141,0.085,west,8.5,No
2021/01/29,15:50,0.179,0.160,0.256,0.242,0.239,0.142,0.085,west,9.5,No
2021/01/29,16:00,0.179,0.160,0.256,0.242,0.238,0.141,0.085,west-northwest,9.6,No
2021/01/29,16:10,0.179,0.160,0.255,0.242,0.238,0.141,0.086,west,10.7,No
2021/01/29,16:20,0.178,0.160,0.256,0.241,0.237,0.142,0.086,west,9.5,No
2021/01/29,16:30,0.179,0.161,0.256,0.240,0.238,0.141,0.085,west-northwest,6.1,No
2021/01/29,16:40,0.179,0.160,0.256,0.241,0.239,0.142,0.086,west-northwest,6.2,No
2021/01/29,16:50,0.179,0.160,0.256,0.242,0.238,0.141,0.085,west-northwest,7.9,No
2021/01/29,17:00,0.178,0.160,0.256,0.241,0.238,0.142,0.085,west-northwest,7.5,No
2021/01/29,17:10,0.179,0.160,0.256,0.242,0.238,0.142,0.085,west-northwest,9.6,No
2021/01/29,17:20,0.180,0.161,0.255,0.241,0.238,0.140,0.085,west-northwest,9.0,No
2021/01/29,17:30,0.178,0.160,0.256,0.241,0.237,0.141,0.085,west-northwest,7.0,No
2021/01/29,17:40,0.179,0.160,0.256,0.242,0.237,0.140,0.085,west-northwest,7.5,No
2021/01/29,17:50,0.179,0.161,0.256,0.240,0.239,0.141,0.085,west,8.1,No
2021/01/29,18:00,0.179,0.160,0.256,0.241,0.238,0.141,0.085,west,8.1,No
2021/01/29,18:10,0.179,0.160,0.256,0.241,0.237,0.141,0.086,west,8.7,No
2021/01/29,18:20,0.179,0.161,0.256,0.241,0.238,0.142,0.086,west,9.5,No
2021/01/29,18:30,0.179,0.160,0.256,0.241,0.238,0.141,0.085,west-northwest,7.9,No
2021/01/29,18:40,0.179,0.161,0.255,0.240,0.239,0.140,0.086,west,8.1,No
2021/01/29,18:50,0.179,0.159,0.254,0.242,0.237,0.141,0.085,west,7.0,No
2021/01/29,19:00,0.178,0.161,0.257,0.242,0.238,0.141,0.085,west,7.3,No
2021/01/29,19:10,0.179,0.160,0.255,0.243,0.237,0.141,0.085,west-northwest,7.4,No
2021/01/29,19:20,0.178,0.160,0.255,0.241,0.237,0.141,0.086,west,7.4,No
2021/01/29,19:30,0.179,0.161,0.255,0.241,0.238,0.141,0.085,west-northwest,7.3,No
2021/01/29,19:40,0.178,0.160,0.255,0.241,0.237,0.141,0.086,west,8.1,No
2021/01/29,19:50,0.178,0.160,0.255,0.241,0.236,0.141,0.085,west,8.4,No
2021/01/29,20:00,0.179,0.160,0.255,0.242,0.237,0.141,0.086,west,8.7,No
2021/01/29,20:10,0.178,0.160,0.255,0.241,0.236,0.141,0.086,west,9.2,No
2021/01/29,20:20,0.179,0.160,0.256,0.241,0.238,0.142,0.085,west,7.1,No
2021/01/29,20:30,0.178,0.160,0.255,0.242,0.238,0.141,0.085,west,7.3,No
2021/01/29,20:40,0.179,0.159,0.256,0.241,0.237,0.140,0.085,west,8.7,No
2021/01/29,20:50,0.179,0.159,0.256,0.241,0.238,0.141,0.086,west,7.3,No
2021/01/29,21:00,0.179,0.161,0.254,0.241,0.238,0.141,0.086,west,7.1,No
2021/01/29,21:10,0.178,0.160,0.255,0.240,0.238,0.141,0.085,west,8.1,No
2021/01/29,21:20,0.179,0.160,0.256,0.241,0.238,0.141,0.085,west-northwest,7.3,No
2021/01/29,21:30,0.177,0.159,0.255,0.240,0.237,0.141,0.085,west,7.4,No
2021/01/29,21:40,0.179,0.160,0.256,0.242,0.238,0.141,0.085,west,6.3,No
2021/01/29,21:50,0.178,0.161,0.255,0.242,0.237,0.142,0.085,west,5.6,No
2021/01/29,22:00,0.178,0.160,0.255,0.242,0.238,0.141,0.086,west,3.8,No
2021/01/29,22:10,0.180,0.160,0.255,0.241,0.237,0.141,0.085,west,7.0,No
2021/01/29,22:20,0.179,0.160,0.255,0.242,0.238,0.141,0.086,west,7.0,No
2021/01/29,22:30,0.179,0.161,0.256,0.242,0.238,0.141,0.085,west,6.0,No
2021/01/29,22:40,0.178,0.160,0.256,0.242,0.238,0.141,0.085,west,7.1,No
2021/01/29,22:50,0.178,0.160,0.255,0.240,0.238,0.141,0.086,west,9.2,No
2021/01/29,23:00,0.177,0.160,0.256,0.242,0.237,0.140,0.085,west,9.2,No
2021/01/29,23:10,0.179,0.159,0.255,0.242,0.237,0.141,0.085,west,8.7,No
2021/01/29,23:20,0.178,0.159,0.255,0.241,0.238,0.141,0.086,west,10.9,No
2021/01/29,23:30,0.179,0.161,0.255,0.241,0.239,0.141,0.086,west,10.3,No
2021/01/29,23:40,0.178,0.160,0.254,0.240,0.237,0.142,0.085,west,9.0,No
2021/01/29,23:50,0.178,0.161,0.256,0.241,0.236,0.142,0.085,west,9.2,No
